Location: A�t Bou Chrif
(32.7193°N, 5.2385°W)
Time: 00:33:07
(UTC+00:00)

Cosmos 2082 Rocket - Pass Details

Date: 08 August 2020
Orbit: 835 x 852 km, 71.0° (Epoch: 18 September)

Event Time Altitude Azimuth Distance (km) Brightness Sun altitude
Rises 19:57:39 0° 162° (SSE) 3,400 4.9 -9.6°
Reaches altitude 10° 20:00:41 10° 147° (SSE) 2,468 4.1 -10.1°
Maximum altitude 20:04:46 21° 100° (E) 1,835 3.4 -10.9°
Drops below altitude 10° 20:08:50 10° 54° (NE) 2,472 4.4 -11.7°
Sets 20:11:51 0° 39° (NE) 3,408 5.2 -12.2°
